Regional Weather Roundup
Issued by NWS Little Rock, AR

Home | Current Version | Previous Version | Graphics & Text | Print | Product List | Glossary On
Versions: 1 2 3 4 5 6 7 8 9 10 11 12 13 14 15 16 17 18 19 20 21 22 23 24 25 26 27 28 29 30 31 32 33 34 35 36 37 38 39 40 41 42 43 44 45 46 47 48 49 50
000
ASUS44 KLZK 250405
RWRLZK

WEATHER ROUNDUP FOR ARKANSAS
NATIONAL WEATHER SERVICE LITTLE ROCK AR
1100 PM CDT SAT JUN 24 2017

NOTE: "FAIR" INDICATES FEW OR NO CLOUDS BELOW 12,000 FEET WITH NO
SIGNIFICANT WEATHER AND/OR OBSTRUCTIONS TO VISIBILITY.

ARZ001-003-010-029-250500-
NORTHWEST ARKANSAS

CITY           SKY/WX    TMP DP  RH WIND       PRES   REMARKS
FAYETTEVILLE   CLOUDY    64  60  87 CALM      30.24R
FORT SMITH     CLOUDY    74  64  71 E3        30.20R
HARRISON       CLOUDY    66  55  67 N5        30.25R
BENTONVILLE    CLOUDY    72  52  49 E3        30.26R
ROGERS         CLOUDY    68  56  65 NE3       30.26R
SILOAM SPGS    CLOUDY    70  52  52 CALM      30.24R
HIGHFILL       CLOUDY    69  56  62 N3        30.25R
$$

ARZ004-005-016-250500-
NORTH CENTRAL ARKANSAS

CITY           SKY/WX    TMP DP  RH WIND       PRES   REMARKS
BATESVILLE     PTCLDY    66  57  72 NW5       30.20S
FLIPPIN        PTCLDY    66  55  68 CALM      30.20R
MTN HOME       PTCLDY    63  51  65 CALM      30.22R
$$

ARZ040-041-250500-
WEST CENTRAL ARKANSAS

CITY           SKY/WX    TMP DP  RH WIND       PRES   REMARKS
MENA           CLOUDY    70  70 100 CALM      30.21R
MOUNT IDA      CLOUDY    70  68  93 CALM      30.18R
$$

ARZ009-017-025-026-028-250500-
NORTHEAST ARKANSAS

CITY           SKY/WX    TMP DP  RH WIND       PRES   REMARKS
CORNING        FAIR      68  68 100 W6        30.19R
JONESBORO      CLEAR     71  56  58 N3        30.17R
WALNUT RIDGE   PTCLDY    70  57  64 NW6       30.18S
BLYTHEVILLE    CLEAR     67  63  87 N3        30.18R
$$

ARZ022-023-033-042-044-250500-
CENTRAL ARKANSAS

CITY           SKY/WX    TMP DP  RH WIND       PRES   REMARKS
LITTLE ROCK    CLOUDY    72  61  68 N9        30.18R
N LITTLE ROCK    N/A     71  60  67 N5        30.18R
JACKSONVILLE   CLOUDY    72  60  67 N3        30.18R
CONWAY           N/A     72  63  73 N3        30.17S
SEARCY         CLOUDY    71  62  73 N5        30.20R
HOT SPRINGS    CLOUDY    75  61  61 NE6       30.18R
RUSSELLVILLE   CLOUDY    71  58  63 NE5       30.19R
CLINTON        MOCLDY    64  63  94 CALM      30.21S
$$

ARZ036-250500-
EAST ARKANSAS

CITY           SKY/WX    TMP DP  RH WIND       PRES   REMARKS
WEST MEMPHIS   PTCLDY    70  64  81 N5        30.15R
$$

ARZ050-053-066-070-073-250500-
SOUTHWEST ARKANSAS

CITY           SKY/WX    TMP DP  RH WIND       PRES   REMARKS
CAMDEN         MOCLDY    68  66  94 CALM      30.16R
TEXARKANA      CLOUDY    72  67  84 NE5       30.15R
EL DORADO      CLOUDY    73  67  81 NE6       30.15R
DE QUEEN       CLOUDY    72  69  90 CALM      30.15R
$$

ARZ056-057-069-250500-
SOUTHEAST ARKANSAS

CITY           SKY/WX    TMP DP  RH WIND       PRES   REMARKS
PINE BLUFF     MOCLDY    70  64  81 N7        30.16R
STUTTGART      CLOUDY    72  57  60 N3        30.18R
MONTICELLO     PTCLDY    73  65  75 VRB5      30.15R

$$





USA.gov is the U.S. government's official web portal to all federal, state and local government web resources and services.